RH
21 10 8 7 6 6 4 5 5 6 6 5 5 4 4 5 5 5 5 5 6 8 17 16 18 16 14 15 16 16 42 92 95 100 100 98 96 100 97 82 65 59 54 49 44
17 8 7 6 5 4 4 5 4 5 5 5 5 5 5 5 5 6 5 5 6 8 11 18 15 16 14 14 16 15 18 95 100 100 100 72 83 100 100 98 75 65 59 54 48
13 8 6 6 5 5 5 4 4 4 5 5 5 5 5 5 5 6 6 5 6 7 8 13 15 16 17 15 15 15 25 39 100 100 100 89 83 100 100 100 95 73 61 57 57
8 10 7 7 6 5 5 4 4 4 4 5 5 5 5 5 6 5 5 5 6 6 8 10 13 15 23 18 18 18 28 52 98 99 100 87 96 95 100 100 100 90 74 61 61
11 10 7 7 6 5 5 4 4 4 4 5 5 5 5 6 6 4 4 5 5 6 8 10 12 18 21 24 22 20 36 73 90 83 91 100 84 96 100 100 100 100 87 86 70
13 8 8 7 6 5 5 4 4 4 4 4 4 5 5 6 5 4 4 5 6 6 7 9 15 29 29 23 18 72 69 100 93 100 100 87 92 88 94 98 97 100 100 100 97
10 8 8 6 6 5 5 4 4 4 4 4 4 4 5 6 5 4 5 5 5 6 7 9 12 13 36 30 26 68 100 67 88 91 100 99 99 100 100 98 100 100 87 98 100
8 8 8 6 5 5 5 4 4 4 4 4 4 4 6 6 5 5 5 5 5 6 7 8 10 14 20 41 24 40 100 97 75 100 100 100 100 99 96 91 100 100 100 100 100
7 8 7 6 5 5 4 4 4 4 4 4 4 4 5 5 5 5 5 6 5 5 6 8 9 17 22 30 38 20 86 100 100 83 100 100 100 100 96 100 99 100 95 80 98
7 8 6 5 5 4 4 4 4 4 4 3 4 4 5 4 5 5 5 6 6 6 7 7 8 10 15 24 25 38 33 100 100 100 100 100 100 97 86 98 94 99 100 84 74
7 6 6 5 4 4 3 3 4 4 3 3 4 4 4 4 4 4 5 6 6 7 7 8 10 10 28 54 68 66 41 100 100 100 100 100 100 100 99 90 91 90 97 91 82
6 6 6 5 4 3 3 3 4 4 4 3 4 4 4 4 5 4 5 6 6 8 10 8 8 21 29 51 62 56 70 55 100 100 100 100 100 100 100 98 93 96 100 99 87
5 6 5 4 3 3 3 3 3 4 4 3 3 4 4 4 5 4 5 6 7 8 8 10 13 14 20 40 47 74 72 99 96 100 100 100 100 100 100 100 94 90 100 98 94
5 6 5 4 3 3 2 3 3 3 3 3 3 3 4 4 5 5 6 7 7 8 9 11 12 12 18 25 58 71 100 98 89 75 86 100 100 100 100 100 99 97 91 96 95
6 5 4 4 3 3 3 3 3 3 3 3 3 3 4 4 5 6 6 6 9 10 8 10 13 12 14 26 74 89 100 100 100 100 95 72 98 100 100 100 100 100 100 100 100
5 5 4 3 3 3 3 3 3 3 3 2 2 3 3 4 5 5 6 6 7 9 11 10 16 16 17 20 81 100 88 100 100 99 78 85 63 97 100 100 100 100 100 100 100
5 4 4 4 3 3 3 3 3 3 3 2 2 3 3 4 4 4 4 4 5 6 11 16 15 15 18 17 26 99 86 78 100 100 79 87 78 97 93 95 100 100 100 100 100
5 4 4 3 3 3 3 3 3 3 3 3 3 3 4 3 3 3 3 4 4 6 11 16 18 16 16 14 20 38 74 50 54 84 85 94 77 100 100 90 93 99 98 100 100
5 4 4 4 3 4 3 3 3 3 3 3 3 4 4 3 3 4 4 4 4 4 7 11 19 23 27 27 26 21 23 75 77 54 98 90 86 100 100 98 100 100 100 90 95
5 5 4 4 4 4 3 3 4 3 3 4 4 4 4 3 3 4 5 6 6 5 6 6 16 28 31 33 28 26 31 59 82 73 62 92 100 100 100 100 92 98 96 83 68
5 5 4 4 4 4 4 4 4 3 4 4 4 5 3 3 3 4 4 5 6 6 6 6 10 18 37 30 27 29 24 21 40 52 54 64 100 100 100 100 100 100 99 97 80
6 4 4 4 4 4 4 4 4 4 4 4 5 4 4 3 4 5 4 4 5 6 6 6 9 15 31 42 42 36 27 25 27 44 52 59 79 100 100 100 100 100 100 97 99
5 4 4 4 4 4 4 4 5 4 5 5 6 4 4 3 5 5 4 4 5 6 7 7 8 13 18 42 50 48 36 27 22 28 74 99 100 99 100 100 100 100 97 96 100
5 4 5 5 4 4 4 5 5 5 6 7 6 4 4 4 5 5 5 4 4 5 7 8 10 12 14 29 56 47 44 36 30 22 27 61 61 89 100 100 100 100 100 95 96
5 5 6 5 5 5 5 5 6 6 6 8 5 4 4 5 6 4 5 6 6 5 6 8 10 12 13 21 42 68 54 44 34 28 26 64 84 95 100 100 100 100 100 100 97
5 6 6 6 6 6 6 6 7 7 7 10 5 5 3 6 6 5 5 5 5 7 6 8 10 10 13 16 29 53 54 46 35 24 25 32 91 100 100 100 100 100 100 100 100
6 6 6 6 7 6 6 7 7 7 9 9 5 5 4 6 6 7 7 6 7 7 7 10 10 9 11 14 16 22 71 72 55 37 36 32 51 89 99 91 100 100 100 100 100
Wind_Speed
89 85 77 72 67 67 72 75 78 76 70 64 57 56 52 49 47 44 49 51 61 66 72 76 78 83 85 89 94 97 96 99 98 98 97 93 84 81 76 70 66 66 65 62 61
92 85 75 69 67 71 74 80 78 78 72 64 58 53 49 47 46 48 50 51 59 64 70 76 82 83 83 85 96 98 95 97 98 98 101 97 90 84 81 74 70 71 69 64 62
96 83 79 77 76 78 78 81 81 77 72 63 57 51 48 46 49 52 47 50 58 64 69 75 79 82 82 83 90 97 98 97 103 104 106 99 91 86 82 78 74 74 73 67 62
91 88 88 87 82 83 83 82 80 78 72 63 56 50 46 47 51 51 51 52 55 65 70 74 76 81 83 82 85 92 98 100 104 108 107 103 97 91 85 82 82 78 74 70 67
99 94 90 88 86 86 85 83 80 78 73 64 56 50 45 47 58 54 52 51 55 62 70 75 78 80 84 84 86 88 96 105 107 106 106 103 104 92 89 88 86 79 75 74 72
104 97 93 91 91 87 88 86 81 79 73 64 57 50 45 50 62 51 53 53 57 62 69 74 77 83 86 87 84 89 94 105 107 104 104 105 100 100 95 91 86 83 79 76 74
103 97 96 95 92 89 88 86 83 78 73 66 57 47 46 57 61 56 49 57 58 62 67 74 82 83 86 88 85 93 94 101 108 106 105 105 96 95 97 91 89 86 84 80 77
101 100 99 98 92 88 86 85 82 76 71 66 58 47 47 56 60 58 52 58 60 61 68 75 80 84 86 92 92 94 99 99 102 107 102 103 96 98 95 96 85 90 84 82 79
101 101 100 98 93 87 85 83 78 73 69 66 59 48 49 57 57 62 54 55 62 60 69 75 81 86 89 93 95 96 100 98 96 94 103 98 101 103 97 95 96 89 91 88 82
104 102 100 98 92 88 83 77 74 71 67 64 55 51 47 56 54 59 54 57 59 65 69 73 78 84 88 91 94 88 94 104 97 91 93 100 99 102 103 100 97 92 90 90 88
104 103 101 98 94 84 79 74 71 69 67 57 54 52 53 51 53 56 57 58 57 62 64 71 78 79 87 92 96 94 91 107 110 102 98 96 95 97 102 100 99 96 93 90 87
106 105 103 97 89 83 77 72 69 63 64 54 54 52 56 51 50 57 57 56 60 53 70 75 73 80 90 97 95 96 95 98 114 113 105 100 97 97 99 98 95 95 91 89 90
107 105 100 93 86 80 76 74 70 62 58 54 52 51 53 53 54 58 53 57 56 59 63 70 72 81 87 93 95 97 98 94 100 116 112 104 101 101 97 92 94 93 91 89 86
111 104 94 87 83 78 75 74 71 62 57 54 52 50 50 49 55 53 53 56 59 57 62 70 78 80 86 88 97 97 101 101 97 103 115 113 107 100 99 89 93 91 91 90 90
110 99 92 85 81 77 77 76 70 62 57 55 52 48 45 44 47 52 56 58 61 63 65 58 74 78 82 86 96 101 104 105 102 100 98 110 115 106 104 94 88 89 91 88 88
107 97 92 88 78 78 78 75 67 61 59 55 52 46 42 40 41 46 49 56 61 65 63 66 76 80 81 88 100 103 107 108 106 104 102 94 91 107 106 100 100 89 86 90 93
104 98 91 84 80 82 80 71 66 62 58 56 51 45 41 37 34 38 42 49 57 58 61 65 74 77 83 87 95 109 105 108 111 111 100 97 91 76 85 99 104 99 93 88 91
103 96 92 84 81 81 76 68 65 61 58 55 50 44 40 32 31 34 36 44 52 55 64 69 71 76 78 81 87 98 105 101 100 104 98 96 85 74 78 74 75 82 98 99 90
104 97 93 86 86 82 72 66 63 62 58 54 49 44 37 30 28 30 35 41 46 52 62 66 67 75 76 80 87 92 94 102 101 97 102 94 88 78 79 78 71 67 64 76 79
105 101 91 89 89 79 70 64 62 61 57 52 47 43 36 29 26 28 32 36 39 45 56 61 69 73 79 83 85 86 94 102 104 101 93 93 92 84 80 79 77 70 66 61 60
107 100 91 91 84 75 68 62 60 59 55 51 46 42 34 28 26 28 29 34 37 42 50 58 66 72 80 82 79 82 87 91 96 96 90 86 92 90 85 80 76 74 68 61 58
104 95 88 88 79 72 65 60 58 57 54 50 45 39 32 27 22 25 26 31 36 40 44 49 57 70 75 77 80 81 82 87 93 89 88 87 89 95 91 86 77 74 70 64 59
99 93 88 84 76 69 63 58 57 54 51 47 44 37 31 25 21 24 25 28 33 39 43 43 55 69 75 82 83 80 80 80 84 90 95 95 93 91 91 88 83 76 71 68 64
100 89 89 79 71 68 61 58 53 52 48 46 41 35 29 23 22 20 26 27 32 35 43 44 53 63 68 74 79 79 74 76 82 82 83 90 87 89 90 88 86 80 74 71 68
98 93 85 76 70 64 59 55 52 49 47 44 40 33 28 20 22 20 21 26 31 34 41 47 56 62 66 73 80 83 82 79 77 79 81 92 91 93 91 89 83 82 76 71 68
93 90 80 72 67 61 57 53 50 48 45 43 38 33 26 20 19 19 22 24 29 35 40 47 57 63 66 72 79 85 83 76 71 70 77 87 97 95 92 88 86 82 79 74 69
90 84 74 69 64 59 55 51 48 46 45 41 37 31 25 20 17 18 23 24 28 32 38 47 55 58 63 71 77 78 74 71 70 71 75 82 85 96 91 88 87 85 82 80 73
Wind_Direction
327 326 321 317 312 315 320 320 319 318 317 314 307 302 298 292 281 269 258 250 244 236 232 232 228 226 224 225 224 223 222 218 217 223 226 225 224 226 226 227 225 229 229 229 233
325 324 323 314 317 324 323 321 318 317 316 315 308 303 298 291 281 264 259 251 246 241 232 232 229 227 225 224 223 224 223 220 220 221 226 225 222 224 225 225 225 226 230 229 229
326 326 325 324 326 324 323 320 317 317 315 315 307 303 296 288 277 266 263 251 246 240 236 231 232 227 225 224 224 222 221 220 221 221 223 223 223 224 227 227 225 226 229 230 231
327 333 332 328 325 326 324 320 317 315 315 314 307 301 295 285 272 268 260 254 246 240 236 232 232 229 225 225 224 223 220 222 222 221 224 222 223 223 225 227 227 227 227 229 230
331 332 329 327 328 326 322 320 316 314 314 311 305 299 294 281 269 269 263 257 249 240 237 232 230 229 225 223 223 221 218 220 224 224 225 223 223 223 224 226 229 228 229 229 230
331 331 330 327 327 325 322 319 315 315 311 308 304 296 292 276 272 271 266 256 249 241 236 233 230 225 224 223 221 219 219 219 223 222 225 224 222 223 224 225 228 229 227 230 230
330 331 328 326 327 324 321 318 315 313 309 306 302 296 287 276 277 274 264 258 251 244 237 232 230 228 223 222 219 217 220 220 221 223 225 225 223 222 223 225 224 228 229 229 231
330 330 328 326 326 325 320 316 314 311 309 305 300 300 284 277 276 273 263 258 251 243 236 232 231 228 224 221 220 216 215 223 223 221 225 225 221 226 225 222 228 226 228 229 229
329 329 326 327 326 323 319 315 313 311 309 304 303 301 287 280 277 275 269 257 256 248 239 233 228 227 225 222 222 219 214 220 226 224 222 225 224 224 225 226 225 226 229 229 229
328 328 327 326 324 322 317 314 312 313 308 306 305 297 284 279 274 271 266 258 251 245 242 237 232 228 226 225 223 221 214 215 220 224 222 225 227 229 228 225 228 227 229 231 231
329 327 327 325 324 321 317 315 316 316 308 310 302 297 288 281 279 272 265 258 251 246 244 237 233 232 226 225 220 217 218 212 214 220 222 225 226 229 229 228 227 229 229 231 230
328 329 327 324 323 320 317 313 317 318 310 310 303 296 291 287 273 266 261 254 252 243 239 238 233 227 225 224 222 220 218 219 216 218 218 220 222 225 230 229 227 228 228 231 232
328 329 326 324 323 320 317 317 318 319 313 309 302 297 291 283 274 265 260 255 248 240 238 238 229 227 227 224 224 221 219 218 220 220 218 219 221 223 228 231 232 230 231 232 234
328 328 326 325 324 320 318 318 321 320 315 311 306 299 291 281 271 272 262 257 250 241 233 232 229 226 225 224 222 222 220 219 218 222 220 219 221 223 225 225 231 232 233 234 234
329 327 326 328 325 321 320 320 322 321 317 313 309 303 291 279 270 261 257 254 247 242 235 229 231 229 225 223 223 221 221 219 220 219 222 224 220 224 225 224 226 233 232 234 235
330 329 331 329 326 321 321 324 322 321 319 316 312 306 295 282 268 259 252 247 243 240 235 222 223 224 222 220 221 222 222 220 221 222 220 221 223 224 226 228 228 227 230 234 232
329 331 332 331 326 323 324 326 323 322 321 319 316 309 301 288 274 261 252 243 241 238 232 224 222 222 221 220 218 220 222 221 220 221 220 220 221 218 224 228 230 230 229 230 234
330 333 331 330 324 324 327 325 324 323 324 322 318 312 306 295 280 265 248 240 235 232 226 225 220 222 225 223 219 222 221 223 222 222 223 222 220 216 223 223 224 229 235 229 229
332 333 333 329 326 327 328 326 325 325 325 323 320 316 309 298 282 261 249 239 236 232 226 225 221 219 220 222 221 221 222 222 223 221 220 221 218 217 224 223 220 219 220 228 233
333 333 332 327 329 330 327 326 326 325 326 323 321 318 310 300 277 256 244 238 234 232 229 225 217 217 219 220 220 219 220 221 222 223 218 218 218 215 221 224 220 221 221 220 223
332 333 331 327 331 332 328 328 326 326 326 324 322 318 311 301 276 260 241 235 229 228 225 226 218 216 218 222 222 221 221 221 220 221 220 216 215 216 218 225 222 219 219 219 218
333 332 329 327 332 330 327 327 327 327 326 325 323 319 311 301 281 263 245 235 228 225 226 225 217 217 216 220 222 223 221 219 221 220 220 217 215 217 216 222 224 221 219 217 219
334 334 328 328 331 328 328 328 328 327 326 326 324 319 312 299 278 263 249 233 225 221 222 218 215 216 215 214 218 221 223 220 219 218 216 218 219 219 215 220 223 224 221 217 217
332 330 327 331 330 328 328 328 328 328 327 326 324 319 312 297 282 265 256 244 230 219 216 209 214 216 215 215 218 222 224 222 219 219 216 216 214 217 215 217 221 222 222 221 218
330 328 328 329 328 328 327 327 328 328 327 327 323 318 311 297 285 275 253 241 237 224 216 210 209 211 210 214 214 217 219 220 219 216 215 215 214 217 216 213 219 220 221 223 223
328 325 328 328 327 327 326 327 328 328 328 327 323 318 311 297 286 274 257 243 232 221 216 211 212 211 211 210 212 216 218 221 221 216 212 213 214 216 218 216 218 217 219 221 224
324 325 328 327 327 326 327 327 328 328 326 327 321 317 308 296 283 266 255 242 234 225 216 214 214 213 212 211 213 213 215 220 220 217 212 213 215 215 216 216 217 219 218 219 221